カタログに戻る

STARLINK-11412

運用中通信VLEO
NORAD 63062·PAYLOAD·🇺🇸 United States

打ち上げ Feb 21, 2025 から Cape Canaveral Space Force Station

Loading…

次のパス (今後24時間)

TLE

最新Source: CelesTrak SupGP

元期: Sep 14, 2026, 20:35 UTC

1 63062C 25035L   26257.85812500 -.00089828  00000+0 -69764-3 0  2571
2 63062  43.0000 315.0982 0001641 265.0357  39.1464 15.70884713    16

AllMySatでSTARLINK-11412をリアルタイム追跡

Download on the App Store